Location: La Junie
(44.7428°N, 2.1773°E)
Time: 19:43:21
(UTC+00:00)

BREEZE-M DEB - Pass Details

Date: 15 May 2026
Orbit: 819 x 34897 km, 45.0° (Epoch: 6 June)

Event Time Altitude Azimuth Distance (km) Brightness Sun altitude
Rises 22:30:04 0° 257° (WSW) 3,350 6.9 -23.8°
Reaches altitude 10° 22:31:56 10° 257° (WSW) 2,431 6.1 -23.9°
Maximum altitude 22:36:26 86° 170° (S) 1,121 4.2 -24.2°
Drops below altitude 10° 22:48:18 10° 82° (E) 6,090 8.0 -24.8°
Sets 22:57:21 0° 83° (E) 9,768 9.1 -25.2°
